Location: French River
(46.0362°N, 80.5373°W)
Time: 23:32:02
(UTC-04:00)

ISS - Visible Passes

Search period start: 18 July 2019 00:00
Search period end: 28 July 2019 00:00
Orbit: 409 x 418 km, 51.6° (Epoch: 19 July)

Date Brightness Start Highest point End Pass type
(mag) Time Alt. Az. Time Alt. Az. Time Alt. Az.
18 Jul -2.5 00:04:57 10° W 00:08:09 42° NNW 00:11:21 10° ENE visible
18 Jul -1.8 01:42:20 10° WNW 01:45:20 30° N 01:48:20 10° ENE visible
18 Jul -3.3 03:19:07 10° WNW 03:22:26 62° NNE 03:25:43 10° ESE visible
18 Jul -2.7 04:56:10 10° W 04:58:54 24° SW 05:01:37 10° SSE visible
18 Jul -2.8 21:39:21 10° SSW 21:42:16 28° SE 21:45:11 10° E visible
18 Jul -3.1 23:15:30 10° WSW 23:18:48 56° NNW 23:22:05 10° ENE visible
19 Jul -1.8 00:52:55 10° WNW 00:55:55 30° N 00:58:54 10° ENE visible
19 Jul -2.7 02:29:52 10° WNW 02:33:06 45° NNE 02:36:19 10° E visible
19 Jul -3.4 04:06:38 10° WNW 04:09:46 39° SW 04:12:52 10° SSE visible
19 Jul -3.7 22:26:09 10° WSW 22:29:29 81° NNW 22:32:50 10° ENE visible
20 Jul -1.9 00:03:27 10° WNW 00:06:29 31° N 00:09:32 10° ENE visible
20 Jul -2.2 01:40:36 10° WNW 01:43:43 36° NNE 01:46:03 15° ENE visible
20 Jul -2.0 03:17:16 10° WNW 03:18:35 22° WNW 03:18:35 22° WNW visible
20 Jul -3.8 21:36:54 10° SW 21:40:12 65° SSE 21:43:32 10° ENE visible
20 Jul -2.1 23:13:56 10° W 23:17:04 36° NNW 23:20:11 10° ENE visible
21 Jul -1.9 00:51:15 10° WNW 00:54:17 32° N 00:56:16 17° ENE visible
21 Jul -1.6 02:27:57 10° WNW 02:29:01 19° WNW 02:29:01 19° WNW visible
21 Jul -2.6 22:24:26 10° W 22:27:39 45° NNW 22:30:54 10° ENE visible
22 Jul -1.8 00:01:50 10° WNW 00:04:50 30° N 00:07:47 10° ENE visible
22 Jul -2.1 01:38:39 10° WNW 01:40:34 30° NW 01:40:34 30° NW visible
22 Jul -3.2 21:34:58 10° WSW 21:38:17 61° NNW 21:41:36 10° ENE visible
22 Jul -1.8 23:12:22 10° WNW 23:15:22 30° N 23:18:22 10° ENE visible
23 Jul -2.6 00:49:21 10° WNW 00:52:25 42° N 00:52:25 42° N visible
23 Jul -2.0 22:22:50 10° WNW 22:25:54 32° N 22:28:58 10° ENE visible
24 Jul -2.2 00:00:01 10° WNW 00:03:07 35° NNE 00:04:24 25° ENE visible
24 Jul -1.1 01:36:41 10° WNW 01:37:12 14° WNW 01:37:12 14° WNW visible
24 Jul -2.2 21:33:16 10° W 21:36:26 38° NNW 21:39:36 10° ENE visible
24 Jul -2.0 23:10:37 10° WNW 23:13:39 31° N 23:16:28 11° ENE visible
25 Jul -2.2 00:47:20 10° WNW 00:49:16 31° NW 00:49:16 31° NW visible
25 Jul -1.9 22:21:08 10° WNW 22:24:09 30° N 22:27:08 10° ENE visible
25 Jul -3.2 23:58:00 10° WNW 00:01:17 52° NNE 00:01:22 52° NNE visible
26 Jul -1.9 21:31:37 10° WNW 21:34:38 30° N 21:37:39 10° ENE visible
26 Jul -2.6 23:08:39 10° WNW 23:11:51 40° NNE 23:13:31 22° ENE visible
27 Jul -1.4 00:45:21 10° WNW 00:46:20 18° WNW 00:46:20 18° WNW visible
27 Jul -2.2 22:19:15 10° WNW 22:22:21 33° N 22:25:26 10° ENE visible
